sat.trackr.live / text

‹ back to catalog

HULIANWANG DIGUI-26

NORAD 63693 · 2025-086G

PAYLOAD ACTIVE UNKNOWN

§ Identity

Operator
Country
PRC
Launch date
2025-04-28
Launch site
WSC
Launch vehicle
Mass (kg)
RCS (m²)

External: N2YO · Heavens-Above · Gunter

§ Orbital elements

Epoch: 2026-05-25T03:44:53.621088Z

Period
108.73 min
Inclination
86.5063°
Eccentricity
0.0001307
Mean motion
13.24406707 rev/d
Perigee alt
1,166.9 km
Apogee alt
1,168.9 km
Semi-major
7,546.1 km
B*
3.6520e-5
RAAN
320.9611°
Arg perigee
73.5288°
Mean anomaly
286.5989°
Rev number
5,181

§ Raw data

HULIANWANG DIGUI-261 63693U 25086G   26145.15617617  .00000030  00000+0  36520-4 0  99922 63693  86.5063 320.9611 0001307  73.5288 286.5989 13.24406707 51819

JSON: /api/v1/satellites/63693 · /tle

For live sub-satellite position, see the globe view (requires WebGL).

§ Visibility from observer

Set your observer location to see the next 7 days of passes ≥ 10°. The values pass through the URL so the page stays shareable.

No JS? Fill the form by hand. The geolocation button needs JavaScript.